Powrót do katalogu

DELTA 2 R/B(1)

AktywnyLEO
NORAD 25135·ROCKET BODY·🇺🇸 United States

Wystrzelony Jan 10, 1998 z Cape Canaveral Space Force Station

Loading…

Następne Przeloty (najbliższe 24 godziny)

TLE

ŚwieżeSource: Space-Track

Epoka: Sep 14, 2026, 12:25 UTC

1 25135U 98002B   26257.51752012  .00000187  00000-0  57781-4 0  9998
2 25135  26.8860 271.0137 0354861 288.2199 241.1635 13.62783739429078

Śledź DELTA 2 R/B(1) w czasie rzeczywistym z AllMySat

Download on the App Store